TimeCST,TemperatureF,Dew PointF,Humidity,Sea Level PressureIn,VisibilityMPH,Wind Direction,Wind SpeedMPH,Gust SpeedMPH,PrecipitationIn,Events,Conditions,WindDirDegrees,DateUTC
1:15 AM,51.1,36.7,58,29.95,10.0,WNW,5.8,-,N/A,,Clear,300,2012-11-09 07:15:00
1:35 AM,53.1,33.6,48,29.95,10.0,Calm,Calm,-,N/A,,Clear,0,2012-11-09 07:35:00
1:55 AM,52.5,34.3,50,29.95,10.0,East,4.6,-,N/A,,Clear,80,2012-11-09 07:55:00
2:15 AM,50.5,34.9,55,29.95,10.0,Calm,Calm,-,N/A,,Clear,0,2012-11-09 08:15:00
2:35 AM,49.3,34.9,58,29.95,10.0,Calm,Calm,-,N/A,,Clear,0,2012-11-09 08:35:00
2:55 AM,51.3,34.3,52,29.95,10.0,Calm,Calm,-,N/A,,Clear,0,2012-11-09 08:55:00
3:35 AM,48.7,32.9,54,29.95,10.0,SW,4.6,-,N/A,,Clear,230,2012-11-09 09:35:00
3:55 AM,48.2,33.6,57,29.95,10.0,Calm,Calm,-,N/A,,Clear,0,2012-11-09 09:55:00
4:15 AM,45.9,33.8,63,29.96,10.0,SSE,4.6,-,N/A,,Clear,160,2012-11-09 10:15:00
4:35 AM,46.9,33.1,59,29.95,10.0,South,3.5,-,N/A,,Clear,170,2012-11-09 10:35:00
4:55 AM,49.1,33.3,54,29.95,10.0,SSE,3.5,-,N/A,,Clear,160,2012-11-09 10:55:00
5:15 AM,50.0,32.9,52,29.96,10.0,South,3.5,-,N/A,,Clear,180,2012-11-09 11:15:00
5:55 AM,48.2,33.4,57,29.96,10.0,Calm,Calm,-,N/A,,Clear,0,2012-11-09 11:55:00
6:15 AM,49.6,33.3,53,29.96,10.0,Calm,Calm,-,N/A,,Clear,0,2012-11-09 12:15:00
6:35 AM,46.6,32.9,59,29.96,10.0,South,3.5,-,N/A,,Clear,170,2012-11-09 12:35:00
6:55 AM,49.3,33.3,54,29.97,10.0,SSE,4.6,-,N/A,,Clear,160,2012-11-09 12:55:00
7:15 AM,46.6,32.9,59,29.97,10.0,SSE,4.6,-,N/A,,Clear,150,2012-11-09 13:15:00
7:35 AM,47.8,33.4,57,29.97,10.0,SE,5.8,-,N/A,,Clear,140,2012-11-09 13:35:00
7:55 AM,48.9,35.1,59,29.98,10.0,South,3.5,-,N/A,,Clear,180,2012-11-09 13:55:00
8:15 AM,51.8,36.0,55,29.98,10.0,Calm,Calm,-,N/A,,Clear,0,2012-11-09 14:15:00
8:55 AM,57.4,37.9,48,29.98,10.0,Calm,Calm,-,N/A,,Clear,0,2012-11-09 14:55:00
9:15 AM,61.0,40.5,47,29.99,10.0,Calm,Calm,-,N/A,,Clear,0,2012-11-09 15:15:00
9:35 AM,63.7,40.1,42,29.99,10.0,Calm,Calm,-,N/A,,Clear,0,2012-11-09 15:35:00
9:55 AM,66.4,40.1,38,29.99,10.0,Calm,Calm,-,N/A,,Clear,0,2012-11-09 15:55:00
10:15 AM,69.6,40.8,35,30.00,10.0,Calm,Calm,-,N/A,,Clear,0,2012-11-09 16:15:00
10:35 AM,71.8,40.8,33,30.00,10.0,NNE,3.5,-,N/A,,Clear,20,2012-11-09 16:35:00
10:55 AM,73.8,41.2,31,29.99,10.0,NNE,3.5,-,N/A,,Clear,20,2012-11-09 16:55:00
11:15 AM,77.2,42.6,29,29.98,10.0,East,5.8,-,N/A,,Clear,100,2012-11-09 17:15:00
11:35 AM,77.4,42.1,28,29.98,10.0,NE,4.6,-,N/A,,Clear,50,2012-11-09 17:35:00
11:55 AM,79.9,41.4,25,29.97,10.0,SE,3.5,-,N/A,,Clear,130,2012-11-09 17:55:00
12:35 PM,82.6,40.5,22,29.94,10.0,SSE,5.8,-,N/A,,Clear,150,2012-11-09 18:35:00
12:55 PM,83.3,40.1,22,29.92,10.0,SE,6.9,-,N/A,,Clear,130,2012-11-09 18:55:00
1:15 PM,84.4,39.6,20,29.91,10.0,ENE,8.1,-,N/A,,Clear,70,2012-11-09 19:15:00
1:35 PM,84.6,38.7,20,29.89,10.0,Calm,Calm,-,N/A,,Clear,0,2012-11-09 19:35:00
1:55 PM,85.6,39.0,19,29.88,10.0,SSE,3.5,-,N/A,,Clear,150,2012-11-09 19:55:00
2:15 PM,86.5,38.3,18,29.87,10.0,SW,6.9,-,N/A,,Clear,230,2012-11-09 20:15:00
2:35 PM,86.4,38.3,18,29.86,10.0,WSW,10.4,16.1,N/A,,Clear,240,2012-11-09 20:35:00
2:55 PM,86.2,37.9,18,29.86,10.0,WSW,6.9,-,N/A,,Clear,250,2012-11-09 20:55:00
3:15 PM,85.6,37.6,18,29.85,10.0,WSW,8.1,-,N/A,,Clear,240,2012-11-09 21:15:00
3:35 PM,87.6,37.9,17,29.84,10.0,SSW,13.8,-,N/A,,Clear,210,2012-11-09 21:35:00
3:55 PM,87.3,37.8,17,29.84,10.0,SSW,10.4,-,N/A,,Clear,200,2012-11-09 21:55:00
4:15 PM,86.9,37.4,17,29.84,10.0,South,6.9,-,N/A,,Clear,190,2012-11-09 22:15:00
4:35 PM,85.5,38.3,19,29.84,10.0,Calm,Calm,-,N/A,,Clear,0,2012-11-09 22:35:00
4:55 PM,85.3,38.5,19,29.83,10.0,ESE,8.1,-,N/A,,Scattered Clouds,110,2012-11-09 22:55:00
5:15 PM,82.0,43.2,25,29.83,10.0,East,15.0,20.7,N/A,,Scattered Clouds,100,2012-11-09 23:15:00
5:35 PM,79.0,43.7,29,29.84,10.0,East,10.4,-,N/A,,Scattered Clouds,100,2012-11-09 23:35:00
5:55 PM,77.4,43.3,30,29.84,10.0,ESE,11.5,-,N/A,,Clear,110,2012-11-09 23:55:00
6:15 PM,75.6,44.1,32,29.83,10.0,East,12.7,-,N/A,,Clear,100,2012-11-10 00:15:00
6:35 PM,74.5,45.5,36,29.84,10.0,East,11.5,-,N/A,,Clear,100,2012-11-10 00:35:00
6:55 PM,72.7,47.1,40,29.84,10.0,East,9.2,-,N/A,,Clear,90,2012-11-10 00:55:00
7:15 PM,71.6,48.6,44,29.84,10.0,East,8.1,-,N/A,,Clear,90,2012-11-10 01:15:00
7:35 PM,71.2,50.0,47,29.84,10.0,East,6.9,-,N/A,,Clear,90,2012-11-10 01:35:00
7:55 PM,70.3,50.0,48,29.84,10.0,East,6.9,-,N/A,,Clear,100,2012-11-10 01:55:00
8:15 PM,70.3,46.4,42,29.85,10.0,SE,10.4,-,N/A,,Clear,130,2012-11-10 02:15:00
8:35 PM,71.1,43.2,37,29.86,10.0,SE,11.5,-,N/A,,Clear,130,2012-11-10 02:35:00
8:55 PM,70.5,43.0,37,29.86,10.0,SE,11.5,-,N/A,,Scattered Clouds,130,2012-11-10 02:55:00
9:15 PM,69.3,44.4,41,29.86,10.0,ESE,12.7,-,N/A,,Clear,120,2012-11-10 03:15:00
11:15 PM,66.2,51.3,59,29.86,10.0,ESE,9.2,-,N/A,,Clear,120,2012-11-10 05:15:00
11:35 PM,65.5,52.3,62,29.85,10.0,ESE,11.5,-,N/A,,Clear,120,2012-11-10 05:35:00
11:55 PM,64.6,52.7,65,29.85,10.0,SE,6.9,-,N/A,,Clear,130,2012-11-10 05:55:00